Location: Newark
(45.5167°N, 11.1667°E)
Time: 11:06:07
(UTC+00:00)

Explorer 7 - Pass Details

Date: 24 December 2019
Orbit: 485 x 679 km, 50.3° (Epoch: 25 January)

Event Time Altitude Azimuth Distance (km) Brightness Sun altitude
Rises 14:18:28 0° 292° (WNW) 2,962 10.8 9.4°
Reaches altitude 10° 14:20:48 10° 296° (WNW) 2,073 10.0 9.2°
Maximum altitude 14:25:35 66° 19° (NNE) 734 7.4 8.6°
Drops below altitude 10° 14:30:29 10° 102° (ESE) 2,115 9.5 8.0°
Sets 14:32:52 0° 105° (ESE) 3,027 10.3 7.7°
